Preview of NWS' New Version of Forecast
This preview is not operational and should not be used for support decisions.

Regional Weather Roundup (RWR)

Issued by National Weather Service (NWS)

                            
000
ASUS46 KPQR 181510
RWROR 

OREGON REGIONAL WEATHER ROUNDUP
NATIONAL WEATHER SERVICE PORTLAND OR
800 AM PDT TUE JUN 18 2019

NOTE: "FAIR" INDICATES FEW OR NO CLOUDS BELOW 12,000 FEET WITH
NO SIGNIFICANT WEATHER AND/OR OBSTRUCTIONS TO VISIBILITY.

ORZ001>013-181600-
NORTHWEST OREGON

  
CITY           SKY/WX    TMP DP  RH WIND       PRES   REMARKS
ASTORIA        CLOUDY    56  50  80 N10       30.28R                  
TILLAMOOK      CLOUDY    59  54  82 W6        30.29R                  
NEWPORT        SUNNY     55  55 100 CALM      30.29S FOG              
PORTLAND       PTSUNNY   62  51  67 NW5       30.24R                  
VANCOUVER WA   CLOUDY    61  51  70 N3        30.24R                  
SCAPPOOSE      CLOUDY    62  53  72 CALM      30.23R                  
HILLSBORO      PTSUNNY   62  51  67 NW10      30.24R                  
AURORA         PTSUNNY   62  51  67 N9        30.25R                  
MCMINNVILLE    CLOUDY    59  55  87 SW3       30.24R                  
SALEM          CLOUDY    60  53  77 N8        30.23R                  
CORVALLIS      SUNNY     61  54  77 NW8       30.24S                  
EUGENE         MOSUNNY   62  54  74 N10       30.23R                  
$$

ORZ021-028-181600-
SOUTHWEST OREGON

  
CITY           SKY/WX    TMP DP  RH WIND       PRES   REMARKS
NORTH BEND     CLOUDY    53  53 100 N8        30.25R FOG              
BROOKINGS      SUNNY     74  54  49 NW6       30.08S                  
ROSEBURG       SUNNY     66  53  63 N8        30.20R                  
SEXTON SUMMIT  SUNNY     57  51  80 N7        30.23S                  
GRANTS PASS    FAIR      68  54  60 CALM      30.18S                  
MEDFORD        SUNNY     63  49  60 CALM      30.17S                  
$$

ORZ014>016-041-181600-
COLUMBIA GORGE

  
CITY           SKY/WX    TMP DP  RH WIND       PRES   REMARKS
TROUTDALE      CLOUDY    62  52  69 NW5       30.24R                  
HOOD RIVER     MOSUNNY   64  52  63 W14G24    30.13F                  
THE DALLES     SUNNY     68  53  58 NW18G24   30.08F                  
$$

ORZ029>031-041-044-049-050-061>064-502-503-505>511-181600-
EASTERN OREGON

  
CITY           SKY/WX    TMP DP  RH WIND       PRES   REMARKS
MADRAS         SUNNY     63  48  59 NW12      30.17F                  
REDMOND        SUNNY     64  46  52 VRB3      30.16F                  
BEND           SUNNY     64  46  52 SW8       30.17S                  
PRINEVILLE     SUNNY     61  45  55 VRB3      30.17S                  
KLAMATH FALLS  SUNNY     62  47  57 CALM      30.22R                  
LAKEVIEW       SUNNY     61  46  57 NW8       30.24R                  
HERMISTON      SUNNY     71  52  50 W14G22    30.04R                  
PENDLETON      SUNNY     69  49  48 W12       30.07S                  
JOHN DAY       SUNNY     62  44  50 CALM      30.16F                  
MEACHAM        SUNNY     60  44  55 VRB5      30.14S                  
LA GRANDE      SUNNY     66  46  48 NW16      30.10S                  
BAKER CITY     SUNNY     65  50  58 W3        30.11S                  
BURNS          SUNNY     65  40  39 NW9       30.17F                  
ROME             N/A     69  40  34 VRB5      30.13F                  
ONTARIO        SUNNY     76  46  34 W8        30.05R                  
$$